Skip Page Navigation
NASA JPL Caltech
NASA Logo - Jet Propulsion Laboratory + View the NASA Portal
+ Center for Near-Earth Object Studies
JPL Home Earth Solar System Stars & Galaxies Technology
JPL Solar System Dynamics
BODIES ORBITS EPHEMERIDES TOOLS PHYSICAL DATA DISCOVERY FAQ SITE MAP
JPL Small-Body Database Browser
Search: [ help ]  
105762 (2000 SJ104)
Classification: Main-belt Asteroid          SPK-ID: 2105762
Ephemeris | Orbit Diagram | Orbital Elements | Mission Design | Physical Parameters | Discovery Circumstances ]

[ hide orbit diagram ]

For accurate long-term ephemerides, please instead use our Horizons system.This orbit viewer was implemented using two-body methods, and hence should not be used for determining accurate long-term trajectories (over several years or decades) or planetary encounter circumstances.


[ revert to old Java-based viewer ]

Orbital Elements at Epoch 2459000.5 (2020-May-31.0) TDB
Reference: JPL 14 (heliocentric ecliptic J2000)
 Element Value Uncertainty (1-sigma)   Units 
e .1915706588253604 6.0763e-08  
a 2.527321006109058 1.456e-08 au
q 2.043160455905573 1.5305e-07 au
i 1.099880275039245 1.4943e-05 deg
node 212.4561513779745 0.0004822 deg
peri 224.3381657329538 0.00048576 deg
M 274.6893791274868 5.8013e-05 deg
tp 2459348.268017324506
(2021-May-13.76801732)
0.00023669 TDB
period 1467.536925137537
4.02
1.2681e-05
3.472e-08
d
yr
n .2453089893913648 2.1198e-09 deg/d
Q 3.011481556312543 1.7349e-08 au
  Orbit Determination Parameters
   # obs. used (total)      503  
   data-arc span      9316 days (25.51 yr)  
   first obs. used      1992-10-18  
   last obs. used      2018-04-21  
   planetary ephem.      DE431  
   SB-pert. ephem.      SB431-N16  
   condition code      0  
   norm. resid. RMS      .59655  
   source      ORB  
   producer      Otto Matic  
   solution date      2018-May-07 05:15:18  

Additional Information
 Earth MOID = 1.05865 au 
 Jupiter MOID = 2.25018 au 
 T_jup = 3.427 
[ hide covariance matrix ]
Orbital Elements at Epoch 2456260.5 (2012-Nov-29.0) TDB
Reference: JPL 14 (heliocentric ecliptic J2000)
 Element Value Uncertainty (1-sigma)   Units 
e .1924373298028454 6.4463e-08  
q 2.040804497939956 1.6395e-07 au
tp 2456408.974497011133
(2013-Apr-26.47449701)
0.0002313 TDB
node 212.6084651750853 0.00048048 deg
peri 223.5632483449152 0.00048403 deg
i 1.099876805333365 1.4984e-05 deg
  Orbit Determination Parameters
   # obs. used (total)      503  
   data-arc span      9316 days (25.51 yr)  
   first obs. used      1992-10-18  
   last obs. used      2018-04-21  
   planetary ephem.      DE431  
   SB-pert. ephem.      SB431-N16  
   condition code      0  
   norm. resid. RMS      .59655  
   source      ORB  
   producer      Otto Matic  
   solution date      2018-May-07 05:15:18  

Additional Information
 Jupiter MOID = 2.25018 au 
 T_jup = 3.427 
Orbit Covariance (6×6)
  e q tp node peri i
e 4.155436997372392E-15 -1.054215057285062E-14 -1.249735104484392E-11 -1.179186831697421E-13 -3.194694334751461E-12 6.234082599703811E-15
q -1.054215057285062E-14 2.687810671376481E-14 3.190448861058215E-11 2.901017423123376E-13 8.160912200592676E-12 -1.551546331582056E-14
tp -1.249735104484392E-11 3.190448861058215E-11 5.349946438309989E-8 4.747591594369871E-10 1.367242855913162E-8 -2.535756033982333E-11
node -1.179186831697421E-13 2.901017423123376E-13 4.747591594369871E-10 2.308571045272059E-7 -2.306903112760972E-7 -6.245969531930521E-9
peri -3.194694334751461E-12 8.160912200592676E-12 1.367242855913162E-8 -2.306903112760972E-7 2.342807286478943E-7 6.238176582397264E-9
i 6.234082599703811E-15 -1.551546331582056E-14 -2.535756033982333E-11 -6.245969531930521E-9 6.238176582397264E-9 2.245322496702397E-10

Ephemeris | Orbit Diagram | Orbital Elements | Mission Design | Physical Parameters | Discovery Circumstances ]

Physical Parameter Table
Parameter Symbol Value Units Sigma Reference Notes
absolute magnitude H 16.1   n/a MPO251062  

105762 (2000 SJ104)          Discovered 2000-Sep-24 by LINEAR at Socorro
Reference: 20051019/Numbers.arcLast Updated: 2005-10-26
Ephemeris | Orbit Diagram | Orbital Elements | Mission Design | Physical Parameters | Discovery Circumstances ]
ABOUT SSD CREDITS/AWARDS PRIVACY/COPYRIGHT GLOSSARY LINKS
FirstGov 2020-Jul-11 16:02 UT
(server date/time)  
NASA Home Page
Site Manager:   Ryan S. Park
Webmaster  Alan B. Chamberlin